IRIDIUM 84 [+]

Last updated on Tue Aug 28 2018 14:42:46 GMT+0000 (Coordinated Universal Time)

1 25530U 98066D 18239.40731227 .00000052 00000-0 11555-4 0 9991 2 25530 86.4008 167.6144 0002302 83.9060 276.2398 14.34215479 39521

Satellite not in orbit

IRIDIUM 84 [+]